Preview of NWS' New Version of Forecast
This preview is not operational and should not be used for support decisions.

Regional Weather Roundup (RWR)

Issued by National Weather Service (NWS)

                            
000
ASUS42 KTBW 210718
RWRFL 
FLORIDA REGIONAL WEATHER ROUNDUP
NATIONAL WEATHER SERVICE TAMPA BAY RUSKIN FL
300 AM EDT SUN JUL 21 2019

NOTE: "FAIR" INDICATES FEW OR NO CLOUDS BELOW 12,000 FEET WITH NO
SIGNIFICANT WEATHER AND/OR OBSTRUCTIONS TO VISIBILITY.

FLZ001>010-012>015-112-114-115-210800-
PANHANDLE FLORIDA
  
CITY           SKY/WX    TMP DP  RH WIND       PRES   REMARKS
PENSACOLA      FAIR      76  75  97 CALM      30.01F                  
PENSACOLA NAS  CLOUDY    75  73  93 W5        30.01S                  
MILTON NAS     FAIR      72  72 100 CALM        N/A                   
CRESTVIEW      FAIR      71  69  93 CALM      30.02F                  
DUKE FIELD     FAIR      72  72 100 CALM      30.01F                  
VALPARAISO     FAIR      74  72  93 NE3       30.00F                  
MARY ESTHER    PTCLDY    73  71  93 CALM      30.00F                  
PANAMA CITY    FAIR      72  69  90 CALM      30.01F                  
TYNDALL AFB    FAIR      74  72  92 CALM      30.01S                  
APALACHICOLA   FAIR      75  72  90 E3        30.03F                  

STATION/POSITION SKY/WX   TEMP    WIND        PRES    WAVE   SWELL
                          AIR SEA DIR/SP/G            HT/PER HT/PER
                          (F)     (DEG/KT/KT) (MB)    (FT/S) (FT/S)
30.1N   87.6W              81 86  250/  8/ 12 1016.2F   2/ 3   2/ 9
29.2N   88.2W              83     180/  8/ 10 1016.1
28.8N   86.0W                 86  150/  6/  8 1016.2F   1/ 4
PANAMA CITY BEAC           82 86  240/  2/  4 1017.0S
TOWER C                    82      10/  2/  3 1017.5F
28.5N   84.5W              83     110/  4/  6 1017.2F   1/ 4

$$
FLZ011-016>038-118-127-128-134-139-239-210800-
NORTH FLORIDA
  
CITY           SKY/WX    TMP DP  RH WIND       PRES   REMARKS
MARIANNA       FAIR      74  74 100 CALM      30.02F                  
TALLAHASSEE    FAIR      74  73  97 CALM      30.03F                  
PERRY          FAIR      75  74  97 SE3       30.06S                  
LIVE OAK       CLEAR     73  73 100 CALM      30.06S                  
CROSS CITY     FAIR      74  73  96 NE6       30.05F                  
LAKE CITY      FAIR      72  70  94 CALM      30.07S                  
GAINESVILLE    FAIR      72  71  97 CALM      30.09F                  
WILLISTON      FAIR      72  72  99 CALM      30.07F                  
PALATKA        MOCLDY    72  70  94 CALM      30.07S                  
MAYPORT NAS    FAIR      78  72  81 W5        30.06S                  
JACKSONVILLE   FAIR      73  72  96 CALM      30.06S                  
JAX NAS        FAIR      77  73  87 CALM      30.08R                  
JAX CECIL      FAIR      72  72 100 CALM      30.07S                  
FERNANDINA BEA FAIR      73  72  96 NW5       30.06F                  
ST AUGUSTINE   FAIR      76  73  91 CALM      30.07S                  
PALM COAST     FAIR      74  73  96 CALM      30.06F                  

STATION/POSITION SKY/WX   TEMP    WIND        PRES    WAVE   SWELL
                          AIR SEA DIR/SP/G            HT/PER HT/PER
                          (F)     (DEG/KT/KT) (MB)    (FT/S) (FT/S)
SHELL POINT      NOT AVBL
KEATON BEACH               76      40/  2/  3 1017.6F
CEDAR KEY                  79      70/  8/  9 1017.6F
FERNANDINA                 77 84  260/  3/  4 1018.7F
30.7N   81.3W                 83                N/A     1/ 8
MAYPORT                    77 81  290/  3/  3 1018.3F
31.4N   80.9W              82 83  250/  8/ 10 1017.8S   2/ 4   2/ 9
ST AUGUSTINE               78 77  220/  4/  4 1018.1S

$$
FLZ040-043>046-052-053-057-058-063-144-210800-
INTERIOR CENTRAL FLORIDA
  
CITY           SKY/WX    TMP DP  RH WIND       PRES   REMARKS
OCALA          FAIR      72  71  97 N6        30.07F                  
LEESBURG       MOCLDY    77  75  93 N3        30.07F                  
SANFORD        FAIR      78  75  90 CALM      30.06S                  
ORLANDO EXEC   FAIR      78  75  90 SE5       30.06F                  
ORLANDO INTL   MOCLDY    78  75  90 SE6       30.06F                  
KISSIMMEE      FAIR      78  76  93 E5        30.06F                  
WINTER HAVEN   FAIR      77  75  93 NE5       30.06F                  
LAKELAND       FAIR      73  72  94 CALM      30.06S                  
BARTOW         FAIR      75  73  94 CALM      30.05S                  
SEBRING        FAIR      75  74  96 CALM      30.06S                  
OKEECHOBEE     FAIR      73  72  94 CALM      30.04F                  

$$
FLZ041-047-054-059-064-141-147-210800-
EAST CENTRAL FLORIDA
  
CITY           SKY/WX    TMP DP  RH WIND       PRES   REMARKS
DAYTONA BEACH  FAIR      77  77 100 CALM      30.06F                  
DELAND         FAIR      75  73  94 CALM      30.06S                  
JFK SPACE CTR  CLEAR     80  67  66 CALM      30.05S                  
CAPE CANAVERAL CLEAR     78  57  48 SE5       30.04F                  
PATRICK AFB    FAIR      81  81  98 S5        30.04F                  
MELBOURNE      FAIR      81  76  84 S3        30.05F                  
VERO BEACH     FAIR      75  74  96 CALM      30.05F                  
FT PIERCE      FAIR      76  73  91 CALM      30.05F                  
STUART         FAIR      77  72  83 CALM      30.06F                  

STATION/POSITION SKY/WX   TEMP    WIND        PRES    WAVE   SWELL
                          AIR SEA DIR/SP/G            HT/PER HT/PER
                          (F)     (DEG/KT/KT) (MB)    (FT/S) (FT/S)
28.5N   80.2W              84 83  130/ 10/ 12 1017.3F   1/ 9   2/ 9
28.9N   78.5W              85 86  150/  8/ 10   N/A     2/ 9   2/ 9
TRIDENT PIER               81 84  120/  5/  8 1019.1F
28.4N   80.5W                 82                N/A     1/ 8
27.5N   80.2W                 83                N/A     1/ 8

$$
FLZ050-056-061-142-242-148-248-149-249-151-251-155-255-
160-260-210800-
WEST CENTRAL FLORIDA
  
CITY           SKY/WX    TMP DP  RH WIND       PRES   REMARKS
CRYSTAL RIVER  FAIR      72  70  94 CALM      30.05F                  
INVERNESS      FAIR      72  72 100 CALM      30.07S                  
BROOKSVILLE    FAIR      74  72  93 N3        30.06F                  
CLEARWATER AIR FAIR      75  72  88 E3        30.04S                  
ST PETE CLEARW FAIR      76  72  87 SE5       30.04S                  
TAMPA INTL     MOCLDY    77  70  79 NE5       30.05F                  
TAMPA EXEC     FAIR      72  72 100 CALM      30.06S                  
PLANT CITY     FAIR     N/A N/A N/A MISG      30.07S                  
MACDILL AFB    FAIR      76  72  87 CALM      30.04F                  
PETER O KNIGHT CLOUDY    77  75  94 E6        30.05S                  
ST PETERSBURG  FAIR      80  73  79 E8        30.03S                  
SARASOTA       FAIR      74  72  93 E6        30.02F                  
VENICE         FAIR      75  73  94 E8        30.04F                  

STATION/POSITION SKY/WX   TEMP    WIND        PRES    WAVE   SWELL
                          AIR SEA DIR/SP/G            HT/PER HT/PER
                          (F)     (DEG/KT/KT) (MB)    (FT/S) (FT/S)
27.3N   84.2W                 86                N/A     2/ 4
CLEARWATER BEACH           79 88   80/  6/  8 1017.5R
MIDDLE TAMPA BAY           78     100/  8/ 11 1017.6F
VENICE                     75 87   60/  6/  7 1016.8F

$$
FLZ066-069-070-075>078-162-262-165-265-210800-
SOUTHWEST FLORIDA AND KEYS
  
CITY           SKY/WX    TMP DP  RH WIND       PRES   REMARKS
PUNTA GORDA    FAIR      74  73  97 NE5       30.05F                  
FT MYERS       FAIR      74  72  93 NE5       30.02F                  
SOUTHWEST INTL FAIR      75  72  90 CALM      30.03F                  
MARCO ISLAND   FAIR      76  75  97 MISG      30.03F                  
IMMOKALEE      FAIR      73  72  94 NE3       30.01F                  
MARATHON       FAIR      83  73  72 SE8       29.99F                  
KEY WEST NAS   FAIR      83  76  79 SE13      30.00F                  
KEY WEST INTL  FAIR      82  76  81 SE15      30.00F                  

STATION/POSITION SKY/WX   TEMP    WIND        PRES    WAVE   SWELL
                          AIR SEA DIR/SP/G            HT/PER HT/PER
                          (F)     (DEG/KT/KT) (MB)    (FT/S) (FT/S)
NAPLES                     77 86              1016.9F
26.0N   85.6W              84 86  110/  8/ 10 1016.1F   2/ 6   2/ 6
DRY TORTUGAS               84     110/ 10/ 11 1016.0F
SAND KEY                   83     130/ 18/ 22 1014.6
SOMBRERO KEY               83     130/ 10/ 12 1015.9
LONG KEY                   83                 1014.8

$$
FLZ067-068-071>074-168-172>174-210800-
SOUTHEAST FLORIDA 
  
CITY           SKY/WX    TMP DP  RH WIND       PRES   REMARKS
W PALM BEACH   MOCLDY    57  57 100 CALM      30.04F                  
FT LAUDER-EXEC FAIR      74  72  93 NE3       30.02F                  
FT LAUDERDALE  MOCLDY    77  73  87 N5        30.02F                  
POMPANO BEACH  FAIR      78  74  87 W5        30.03F                  
PEMBROKE PINES FAIR      81  75  82 CALM      30.04F                  
OPA LOCKA      FAIR      80  74  81 SW3       30.02F                  
MIAMI          MOCLDY    80  72  76 CALM      30.02F                  
WEST KENDALL   FAIR      77  73  87 CALM      30.01F                  
HOMESTEAD      FAIR      77  73  87 CALM      30.00F                  

STATION/POSITION SKY/WX   TEMP    WIND        PRES    WAVE   SWELL
                          AIR SEA DIR/SP/G            HT/PER HT/PER
                          (F)     (DEG/KT/KT) (MB)    (FT/S) (FT/S)
PORT EVERGLADES            83     130/  6/  9 1016.8F
VIRGINIA KEY               82 88  170/  5/  9 1016.4
LAKE WORTH                 83 84  150/ 12/ 12 1018.5F
FOWEY ROCKS                82 85  140/  9/ 10 1016.7F
SETTLEMENT POINT           83     140/  5/  5 1017.5F

$$